This demonstration page uses our WeatherBlox Daily Observations layout. Learn more.

Left ArrowRight Arrow

39.29038, -76.61219

Hourly Observations for May 29, 2022

Temp ( °F °C ) Dew Point ( °F °C ) Humidity (%) Winds ( mph kmh ) Pressure ( in mb ) Visibility ( mi km ) Precip ( " mm )
12:54 am 00:54 Mostly Clear 67 19.4 59 15 76 76 Calm 29.94 1014 10 16 0.00 0.00
1:54 am 01:54 Clear 65 18.3 58 14.4 78 78 WNW 5 7 29.95 1014 10 16 0.00 0.00
2:54 am 02:54 Partly Cloudy 64 17.8 58 14.4 81 81 W 3 6 29.96 1014 10 16 0.00 0.00
3:54 am 03:54 Partly Cloudy 60 15.6 57 13.9 90 90 W 5 7 29.97 1015 10 16 0.00 0.00
4:54 am 04:54 Partly Cloudy 62 16.7 57 13.9 84 84 Calm 29.99 1016 10 16 0.00 0.00
5:54 am 05:54 Partly Cloudy 59 15 57 13.9 93 93 Calm 30.01 1016 10 16 0.00 0.00
6:54 am 06:54 Mostly Sunny 62 16.7 58 14.4 86 86 Calm 30.04 1017 10 16 0.00 0.00
7:54 am 07:54 Mostly Sunny 69 20.6 59 15 70 70 NW 5 7 30.05 1018 10 16 0.00 0.00
8:54 am 08:54 Mostly Sunny 74 23.3 58 14.4 57 57 VRB 5 7 30.07 1018 10 16 0.00 0.00
9:54 am 09:54 Mostly Sunny 76 24.4 57 13.9 52 52 NW 3 6 30.07 1018 10 16 0.00 0.00
10:54 am 10:54 Mostly Sunny 78 25.6 57 13.9 48 48 VRB 3 6 30.08 1019 10 16 0.00 0.00
11:54 am 11:54 Mostly Sunny 79 26.1 56 13.3 45 45 Calm 30.07 1018 10 16 0.00 0.00
12:54 pm 12:54 Mostly Sunny 79 26.1 55 12.8 44 44 Calm 30.06 1018 10 16 0.00 0.00
1:54 pm 13:54 Mostly Cloudy 79 26.1 56 13.3 45 45 WSW 6 9 30.06 1018 10 16 0.00 0.00
2:54 pm 14:54 Mostly Cloudy 83 28.3 56 13.3 40 40 WSW 6 9 30.05 1018 10 16 0.00 0.00
3:54 pm 15:54 Partly Cloudy 81 27.2 60 15.6 49 49 SE 9 15 30.05 1018 10 16 0.00 0.00
4:54 pm 16:54 Partly Cloudy 79 26.1 59 15 50 50 SE 5 7 30.04 1017 10 16 0.00 0.00
5:54 pm 17:54 Partly Cloudy 80 26.7 59 15 49 49 SE 9 15 30.03 1017 10 16 0.00 0.00
6:54 pm 18:54 Mostly Sunny 80 26.7 60 15.6 51 51 SSE 7 11 30.02 1017 10 16 0.00 0.00
7:54 pm 19:54 Mostly Sunny 77 25 60 15.6 56 56 SSE 6 9 30.04 1017 10 16 0.00 0.00
8:54 pm 20:54 Mostly Clear 75 23.9 60 15.6 60 60 SSE 6 9 30.04 1017 10 16 0.00 0.00
9:54 pm 21:54 Clear 73 22.8 60 15.6 64 64 Calm 30.06 1018 10 16 0.00 0.00
10:54 pm 22:54 Clear 70 21.1 60 15.6 71 71 Calm 30.07 1018 10 16 0.00 0.00
11:54 pm 23:54 Clear 68 20 61 16.1 78 78 Calm 30.09 1019 10 16 0.00 0.00

Powered by AerisWeather